SV7RNH Weather Reports


Display with metric or nautical units.
time (UTC)temp
F
wind
direction
speed
MPH
gust
MPH
rain 1hr
in
rain 24hr
in
rain mn
in
humidity
%
barometer
mb
20260904062503 80 212 1.0 3.0 0.00 0.00 0.00 44 1016.2
20260904062003 79 212 2.0 3.0 0.00 0.00 0.00 45 1016.2
20260904061503 79 0 0.0 3.0 0.00 0.00 0.00 47 1016.2
20260904061004 78 0 0.0 4.0 0.00 0.00 0.00 48 1016.3
20260904060503 78 0 0.0 4.0 0.00 0.00 0.00 48 1016.3
20260904060003 78 23 1.0 4.0 0.00 0.00 0.00 49 1016.2
20260904055503 78 0 0.0 5.0 0.00 0.00 0.00 49 1016.2
20260904055004 78 0 0.0 5.0 0.00 0.00 0.00 49 1016.4
20260904054503 77 35 1.0 5.0 0.00 0.00 0.00 51 1016.3
20260904054003 76 355 2.0 4.0 0.00 0.00 0.00 51 1016.3
20260904053504 76 353 1.0 4.0 0.00 0.00 0.00 51 1016.2
20260904053003 76 0 0.0 4.0 0.00 0.00 0.00 51 1016.2
20260904052503 76 160 1.0 4.0 0.00 0.00 0.00 51 1016.2
20260904052004 76 0 0.0 4.0 0.00 0.00 0.00 51 1016.3
20260904051503 76 3 1.0 4.0 0.00 0.00 0.00 50 1016.1
20260904051003 76 9 2.0 4.0 0.00 0.00 0.00 50 1016.1
20260904050504 76 125 1.0 4.0 0.00 0.00 0.00 50 1016.1
20260904050004 77 250 1.0 5.0 0.00 0.00 0.00 50 1016.0
20260904045503 77 246 1.0 8.0 0.00 0.00 0.00 51 1016.1
20260904045003 77 239 1.0 9.0 0.00 0.00 0.00 50 1016.2
20260904044504 77 218 2.0 9.0 0.00 0.00 0.00 50 1016.1
20260904044003 77 225 2.0 8.0 0.00 0.00 0.00 51 1016.0
20260904043504 76 287 4.0 8.0 0.00 0.00 0.00 51 1016.0
20260904043003 76 331 2.0 4.0 0.00 0.00 0.00 53 1015.9
20260904042504 76 278 2.0 4.0 0.00 0.00 0.00 54 1015.9
20260904042004 75 250 1.0 4.0 0.00 0.00 0.00 55 1015.6
20260904041503 75 306 2.0 4.0 0.00 0.00 0.00 56 1015.6
20260904041004 75 240 1.0 4.0 0.00 0.00 0.00 56 1015.7
20260904040503 75 243 1.0 4.0 0.00 0.00 0.00 56 1015.7
20260904040005 75 0 0.0 3.0 0.00 0.00 0.00 56 1015.6
20260904035504 75 0 0.0 3.0 0.00 0.00 0.00 56 1015.6
20260904035004 75 0 0.0 3.0 0.00 0.00 0.00 56 1015.6
20260904034503 75 0 0.0 3.0 0.00 0.00 0.00 56 1015.4
20260904034003 75 0 0.0 2.0 0.00 0.00 0.00 56 1015.5
20260904033503 75 0 0.0 4.0 0.00 0.00 0.00 56 1015.4
20260904033003 75 0 0.0 4.0 0.00 0.00 0.00 56 1015.4
20260904032504 75 333 1.0 4.0 0.00 0.00 0.00 56 1015.3
20260904032004 75 0 0.0 4.0 0.00 0.00 0.00 56 1015.3
20260904031503 75 0 0.0 4.0 0.00 0.00 0.00 56 1015.3
20260904031003 75 0 0.0 4.0 0.00 0.00 0.00 56 1015.2
20260904030504 75 328 1.0 4.0 0.00 0.00 0.00 57 1015.3
20260904030003 75 0 0.0 2.0 0.00 0.00 0.00 57 1015.2
20260904025503 75 249 1.0 2.0 0.00 0.00 0.00 57 1015.1
20260904025004 75 0 0.0 2.0 0.00 0.00 0.00 57 1015.3
20260904024503 75 337 1.0 2.0 0.00 0.00 0.00 57 1015.4
20260904024003 75 0 0.0 2.0 0.00 0.00 0.00 57 1015.4
20260904023504 75 0 0.0 2.0 0.00 0.00 0.00 57 1015.3
20260904023003 75 0 0.0 2.0 0.00 0.00 0.00 57 1015.3
20260904022503 75 0 0.0 2.0 0.00 0.00 0.00 57 1015.2
20260904022004 75 0 0.0 2.0 0.00 0.00 0.00 57 1015.0
20260904021503 75 0 0.0 1.0 0.00 0.00 0.00 57 1015.1
20260904021003 75 0 0.0 0.0 0.00 0.00 0.00 56 1015.1
20260904020504 75 0 0.0 3.0 0.00 0.00 0.00 56 1015.0
20260904020004 76 0 0.0 3.0 0.00 0.00 0.00 56 1015.0
20260904015503 76 275 2.0 3.0 0.00 0.00 0.00 56 1014.9
20260904015003 76 249 1.0 4.0 0.00 0.00 0.00 56 1014.9
20260904014504 76 0 0.0 4.0 0.00 0.00 0.00 56 1014.9
20260904014003 76 0 0.0 3.0 0.00 0.00 0.00 56 1015.0
20260904013503 75 156 1.0 2.0 0.00 0.00 0.00 56 1014.9
20260904013004 76 0 0.0 2.0 0.00 0.00 0.00 56 1014.8
20260904012503 76 0 0.0 3.0 0.00 0.00 0.00 56 1014.8
20260904012003 76 0 0.0 3.0 0.00 0.00 0.00 56 1014.8
20260904011503 76 163 1.0 3.0 0.00 0.00 0.00 55 1014.9
20260904011003 76 0 0.0 3.0 0.00 0.00 0.00 56 1014.8
20260904010503 76 184 1.0 4.0 0.00 0.00 0.00 55 1014.7
20260904010003 76 146 1.0 4.0 0.00 0.00 0.00 56 1014.7
20260904005503 76 0 0.0 3.0 0.00 0.00 0.00 56 1014.8
20260904005003 76 79 1.0 3.0 0.00 0.00 0.00 56 1014.7
20260904004504 76 241 1.0 3.0 0.00 0.00 0.00 57 1014.8
20260904004003 76 0 0.0 3.0 0.00 0.00 0.00 57 1014.9
20260904003503 76 0 0.0 3.0 0.00 0.00 0.00 57 1014.8
20260904003003 76 3 1.0 3.0 0.00 0.00 0.00 58 1014.9
20260904002503 76 7 1.0 3.0 0.00 0.00 0.00 58 1014.7
20260904002004 75 219 1.0 3.0 0.00 0.00 0.00 59 1014.7
20260904001503 75 221 1.0 3.0 0.00 0.00 0.00 60 1014.7
20260904001003 75 0 0.0 4.0 0.00 0.00 0.00 61 1014.8
20260904000504 74 0 0.0 4.0 0.00 0.00 0.00 62 1014.7
20260904000004 74 328 1.0 4.0 0.00 0.00 0.00 63 1014.7
20260903235503 74 0 0.0 4.0 0.00 0.00 0.00 63 1014.7
20260903235003 74 31 1.0 5.0 0.00 0.00 0.00 62 1014.7
20260903234503 74 20 2.0 5.0 0.00 0.00 0.00 62 1014.7
20260903234004 74 0 0.0 6.0 0.00 0.00 0.00 60 1014.6
20260903233503 75 93 1.0 6.0 0.00 0.00 0.00 60 1014.7
20260903233003 75 34 1.0 4.0 0.00 0.00 0.00 60 1015.0
20260903232503 75 26 1.0 4.0 0.00 0.00 0.00 60 1015.0
20260903232004 75 0 0.0 4.0 0.00 0.00 0.00 61 1015.0
20260903231504 74 63 1.0 3.0 0.00 0.00 0.00 62 1015.1
20260903231003 74 0 0.0 2.0 0.00 0.00 0.00 62 1015.1
20260903230503 75 0 0.0 2.0 0.00 0.00 0.00 61 1015.2
20260903230003 75 0 0.0 2.0 0.00 0.00 0.00 61 1015.2
20260903225504 75 0 0.0 3.0 0.00 0.00 0.00 61 1015.2
20260903225003 75 0 0.0 3.0 0.00 0.00 0.00 61 1015.3
20260903224503 75 19 1.0 4.0 0.00 0.00 0.00 61 1015.2
20260903224003 75 0 0.0 4.0 0.00 0.00 0.00 61 1015.3
20260903223503 75 0 0.0 4.0 0.00 0.00 0.00 61 1015.3
20260903223003 75 251 2.0 4.0 0.00 0.00 0.00 61 1015.3
20260903222504 75 286 1.0 4.0 0.00 0.00 0.00 61 1015.2
20260903222004 75 0 0.0 3.0 0.00 0.00 0.00 61 1015.2
20260903221503 75 0 0.0 4.0 0.00 0.00 0.00 61 1015.2
20260903221003 75 25 1.0 4.0 0.00 0.00 0.00 61 1015.3
20260903220504 75 0 0.0 5.0 0.00 0.00 0.00 61 1015.3
20260903220004 75 32 2.0 6.0 0.00 0.00 0.00 61 1015.1
20260903215503 75 44 2.0 6.0 0.00 0.00 0.00 61 1015.1
20260903215003 75 31 1.0 5.0 0.00 0.00 0.00 61 1015.2
20260903214503 75 27 2.0 5.0 0.00 0.00 0.00 61 1015.2
20260903214003 75 29 2.0 4.0 0.00 0.00 0.00 60 1015.2
20260903213504 76 31 2.0 4.0 0.00 0.00 0.00 60 1015.2
20260903213003 76 0 0.0 4.0 0.00 0.00 0.00 60 1015.3
20260903212503 76 0 0.0 4.0 0.00 0.00 0.00 59 1015.2
20260903212004 76 0 0.0 4.0 0.00 0.00 0.00 59 1015.2
20260903211503 75 208 1.0 4.0 0.00 0.00 0.00 60 1015.1
20260903211004 75 206 1.0 4.0 0.00 0.00 0.00 61 1015.2
20260903210503 75 0 0.0 3.0 0.00 0.00 0.00 62 1015.2
20260903210004 75 0 0.0 3.0 0.00 0.00 0.00 63 1015.1
20260903205503 75 196 1.0 3.0 0.00 0.00 0.00 63 1015.1
20260903205004 75 191 1.0 3.0 0.00 0.00 0.00 64 1015.0
20260903204503 75 222 1.0 3.0 0.00 0.00 0.00 64 1014.8
20260903204003 74 0 0.0 3.0 0.00 0.00 0.00 65 1014.9
20260903203504 74 0 0.0 3.0 0.00 0.00 0.00 66 1015.0
20260903203004 74 0 0.0 3.0 0.00 0.00 0.00 66 1015.1
20260903202503 74 0 0.0 4.0 0.00 0.00 0.00 67 1014.9
20260903202003 74 184 1.0 4.0 0.00 0.00 0.00 68 1015.0
20260903201503 74 197 2.0 4.0 0.00 0.00 0.00 68 1014.9
20260903201004 74 31 1.0 4.0 0.00 0.00 0.00 71 1014.9
20260903200503 74 53 3.0 4.0 0.00 0.00 0.00 71 1014.8
20260903200003 74 203 1.0 4.0 0.00 0.00 0.00 72 1014.8
20260903195503 74 214 1.0 4.0 0.00 0.00 0.00 73 1014.9
20260903195003 74 0 0.0 4.0 0.00 0.00 0.00 74 1014.9
20260903194504 74 178 1.0 4.0 0.00 0.00 0.00 74 1014.9
20260903194003 74 347 1.0 5.0 0.00 0.00 0.00 76 1014.9
20260903193503 74 0 0.0 5.0 0.00 0.00 0.00 76 1014.9
20260903193003 74 224 1.0 4.0 0.00 0.00 0.00 77 1014.9
20260903192503 74 228 1.0 4.0 0.00 0.00 0.00 78 1015.0
20260903192004 74 0 0.0 4.0 0.00 0.00 0.00 79 1015.1
20260903191503 74 39 1.0 4.0 0.00 0.00 0.00 79 1015.0
20260903191004 74 6 2.0 5.0 0.00 0.00 0.00 80 1015.0
20260903190503 74 9 1.0 5.0 0.00 0.00 0.00 81 1015.0
20260903190003 73 29 1.0 4.0 0.00 0.00 0.00 81 1015.0
20260903185503 73 0 0.0 4.0 0.00 0.00 0.00 81 1015.0
20260903185004 73 319 2.0 4.0 0.00 0.00 0.00 81 1015.0
20260903184503 73 69 1.0 4.0 0.00 0.00 0.00 81 1015.1
20260903184003 73 108 1.0 4.0 0.00 0.00 0.00 81 1014.8
20260903183504 72 0 0.0 4.0 0.00 0.00 0.00 80 1015.0
20260903183003 73 0 0.0 2.0 0.00 0.00 0.00 80 1015.1
20260903182503 73 0 0.0 2.0 0.00 0.00 0.00 80 1015.0
20260903182004 73 0 0.0 1.0 0.00 0.00 0.00 80 1014.9
20260903181503 73 0 0.0 2.0 0.00 0.00 0.00 80 1014.9
20260903181003 73 0 0.0 2.0 0.00 0.00 0.00 80 1015.0
20260903180503 73 0 0.0 4.0 0.00 0.00 0.00 80 1015.0
20260903180003 73 0 0.0 4.0 0.00 0.00 0.00 81 1015.0
20260903175504 72 181 2.0 9.0 0.00 0.00 0.00 80 1015.0
20260903175003 72 157 2.0 14.0 0.00 0.00 0.00 79 1015.1
20260903174504 72 150 4.0 17.0 0.00 0.00 0.00 80 1015.1
20260903174003 71 148 11.0 18.0 0.00 0.00 0.00 82 1015.0
20260903173503 72 146 9.0 18.0 0.00 0.00 0.00 84 1014.7
20260903173005 71 193 6.0 9.0 0.00 0.00 0.00 80 1015.7
20260903172503 70 220 1.0 15.0 0.00 0.00 0.00 75 1016.2
20260903172004 72 261 2.0 24.0 0.00 0.00 0.00 68 1017.0
20260903171504 76 265 11.0 26.0 0.00 0.00 0.00 62 1016.2
20260903171004 82 246 10.0 26.0 0.00 0.00 0.00 48 1015.2
20260903170503 88 206 4.0 10.0 0.00 0.00 0.00 35 1015.0
20260903170003 88 170 2.0 5.0 0.00 0.00 0.00 34 1014.3
20260903165504 88 149 1.0 8.0 0.00 0.00 0.00 35 1014.0
20260903165003 88 145 3.0 8.0 0.00 0.00 0.00 35 1013.5
20260903164503 88 147 3.0 8.0 0.00 0.00 0.00 34 1013.2
20260903164003 89 147 4.0 8.0 0.00 0.00 0.00 34 1013.2
20260903163504 89 140 4.0 8.0 0.00 0.00 0.00 33 1013.1
20260903163003 89 144 4.0 8.0 0.00 0.00 0.00 34 1013.1
20260903162503 89 154 2.0 8.0 0.00 0.00 0.00 33 1013.2
20260903162004 89 146 2.0 10.0 0.00 0.00 0.00 33 1013.3
20260903161504 89 161 2.0 11.0 0.00 0.00 0.00 34 1013.2
20260903161004 89 157 5.0 11.0 0.00 0.00 0.00 35 1013.2
20260903160503 89 142 2.0 9.0 0.00 0.00 0.00 33 1013.2
20260903160004 90 147 4.0 10.0 0.00 0.00 0.00 31 1013.2
20260903155503 90 151 3.0 11.0 0.00 0.00 0.00 30 1013.1
20260903155004 90 144 4.0 11.0 0.00 0.00 0.00 30 1013.1
20260903154504 91 136 4.0 11.0 0.00 0.00 0.00 30 1012.9
20260903154003 92 152 8.0 11.0 0.00 0.00 0.00 29 1012.8
20260903153503 93 152 4.0 11.0 0.00 0.00 0.00 29 1012.6
20260903153004 94 148 4.0 11.0 0.00 0.00 0.00 29 1012.5
20260903152503 96 143 4.0 11.0 0.00 0.00 0.00 25 1012.7
20260903152003 98 343 1.0 6.0 0.00 0.00 0.00 21 1012.6
20260903151504 98 287 2.0 5.0 0.00 0.00 0.00 20 1012.4
20260903151003 98 267 1.0 6.0 0.00 0.00 0.00 21 1012.5
20260903150504 98 241 3.0 6.0 0.00 0.00 0.00 20 1012.4
20260903150003 99 239 2.0 8.0 0.00 0.00 0.00 20 1012.3
20260903145503 99 288 3.0 8.0 0.00 0.00 0.00 20 1012.4
20260903145004 100 307 2.0 6.0 0.00 0.00 0.00 20 1012.3
20260903144503 100 285 2.0 6.0 0.00 0.00 0.00 19 1012.3
20260903144003 100 0 0.0 4.0 0.00 0.00 0.00 18 1012.4
20260903143503 100 238 1.0 4.0 0.00 0.00 0.00 19 1012.4
20260903143003 100 250 1.0 4.0 0.00 0.00 0.00 20 1012.5
20260903142504 100 233 1.0 9.0 0.00 0.00 0.00 22 1012.6
20260903142003 100 238 2.0 9.0 0.00 0.00 0.00 23 1012.7
20260903141503 101 0 0.0 7.0 0.00 0.00 0.00 22 1012.6
20260903141004 102 246 2.0 6.0 0.00 0.00 0.00 20 1012.7
20260903140503 102 257 4.0 7.0 0.00 0.00 0.00 16 1012.6
20260903140004 101 266 2.0 8.0 0.00 0.00 0.00 17 1012.8
20260903135503 101 255 2.0 8.0 0.00 0.00 0.00 17 1012.7
20260903135003 102 233 3.0 8.0 0.00 0.00 0.00 16 1012.7
20260903134503 102 231 2.0 7.0 0.00 0.00 0.00 17 1012.8
20260903134004 100 261 2.0 8.0 0.00 0.00 0.00 18 1012.8
20260903133504 100 267 2.0 8.0 0.00 0.00 0.00 18 1012.9
20260903133003 100 254 4.0 8.0 0.00 0.00 0.00 19 1012.9
20260903132503 101 245 3.0 8.0 0.00 0.00 0.00 18 1013.0
20260903132004 100 255 4.0 8.0 0.00 0.00 0.00 18 1013.0
20260903131504 101 256 2.0 8.0 0.00 0.00 0.00 18 1013.1
20260903131003 101 285 3.0 6.0 0.00 0.00 0.00 17 1013.0
20260903130504 100 0 0.0 6.0 0.00 0.00 0.00 18 1013.1
20260903130004 100 263 2.0 10.0 0.00 0.00 0.00 18 1013.2
20260903125503 100 269 6.0 10.0 0.00 0.00 0.00 18 1013.2
20260903125003 100 259 2.0 10.0 0.00 0.00 0.00 19 1013.2
20260903124504 99 201 4.0 9.0 0.00 0.00 0.00 19 1013.2
20260903124003 100 233 3.0 8.0 0.00 0.00 0.00 18 1013.3
20260903123503 100 267 4.0 8.0 0.00 0.00 0.00 19 1013.4
20260903123004 99 257 3.0 8.0 0.00 0.00 0.00 19 1013.4
20260903122503 100 238 2.0 8.0 0.00 0.00 0.00 19 1013.6
20260903122003 100 248 3.0 8.0 0.00 0.00 0.00 19 1013.5
20260903121504 100 234 4.0 8.0 0.00 0.00 0.00 19 1013.4
20260903121003 100 225 2.0 6.0 0.00 0.00 0.00 18 1013.5
20260903120503 101 229 4.0 6.0 0.00 0.00 0.00 16 1013.5
20260903120004 101 0 0.0 4.0 0.00 0.00 0.00 17 1013.7
20260903115503 101 271 2.0 6.0 0.00 0.00 0.00 17 1013.8
20260903115004 101 0 0.0 6.0 0.00 0.00 0.00 17 1013.9
20260903114503 101 78 2.0 5.0 0.00 0.00 0.00 17 1013.9
20260903114003 100 0 0.0 4.0 0.00 0.00 0.00 18 1014.1
20260903113503 100 19 1.0 4.0 0.00 0.00 0.00 18 1014.1
20260903113005 99 0 0.0 4.0 0.00 0.00 0.00 18 1014.2
20260903112503 99 87 1.0 6.0 0.00 0.00 0.00 18 1014.2
20260903112003 99 0 0.0 6.0 0.00 0.00 0.00 19 1014.3
20260903111504 99 91 2.0 4.0 0.00 0.00 0.00 17 1014.2
20260903111003 99 0 0.0 4.0 0.00 0.00 0.00 18 1014.3
20260903110503 98 0 0.0 4.0 0.00 0.00 0.00 18 1014.3
20260903110003 97 0 0.0 4.0 0.00 0.00 0.00 19 1014.4
20260903105503 97 118 2.0 5.0 0.00 0.00 0.00 19 1014.5
20260903105003 97 105 2.0 5.0 0.00 0.00 0.00 19 1014.6
20260903104504 97 100 2.0 5.0 0.00 0.00 0.00 18 1014.7
20260903104004 96 0 0.0 5.0 0.00 0.00 0.00 23 1014.7
20260903103503 94 158 2.0 8.0 0.00 0.00 0.00 24 1014.7
20260903103004 95 0 0.0 8.0 0.00 0.00 0.00 23 1014.8
20260903102503 96 121 3.0 7.0 0.00 0.00 0.00 23 1014.9
20260903102004 95 99 1.0 6.0 0.00 0.00 0.00 24 1014.9
20260903101504 95 103 2.0 6.0 0.00 0.00 0.00 23 1014.9
20260903101003 95 87 3.0 6.0 0.00 0.00 0.00 24 1015.0
20260903100503 95 113 1.0 5.0 0.00 0.00 0.00 26 1015.1
20260903100004 94 116 2.0 5.0 0.00 0.00 0.00 27 1015.2
20260903095503 94 106 2.0 4.0 0.00 0.00 0.00 27 1015.2
20260903095003 94 0 0.0 4.0 0.00 0.00 0.00 30 1015.3
20260903094504 93 0 0.0 4.0 0.00 0.00 0.00 33 1015.4
20260903094003 93 48 1.0 4.0 0.00 0.00 0.00 32 1015.5
20260903093504 92 0 0.0 3.0 0.00 0.00 0.00 34 1015.7
20260903093003 92 295 1.0 7.0 0.00 0.00 0.00 35 1015.7
20260903092504 91 202 1.0 7.0 0.00 0.00 0.00 35 1015.7
20260903092003 90 61 1.0 6.0 0.00 0.00 0.00 36 1015.8
20260903091503 90 40 1.0 6.0 0.00 0.00 0.00 37 1015.8
20260903091003 90 23 1.0 8.0 0.00 0.00 0.00 38 1015.9
20260903090504 89 276 2.0 8.0 0.00 0.00 0.00 38 1015.8
20260903090003 89 232 2.0 8.0 0.00 0.00 0.00 38 1015.8
20260903085504 89 244 2.0 8.0 0.00 0.00 0.00 39 1015.9
20260903085003 89 235 2.0 8.0 0.00 0.00 0.00 40 1015.9
20260903084503 88 275 1.0 6.0 0.00 0.00 0.00 42 1016.0
20260903084004 87 337 2.0 5.0 0.00 0.00 0.00 41 1016.0
20260903083504 87 74 2.0 7.0 0.00 0.00 0.00 42 1016.1
20260903083003 87 124 2.0 9.0 0.00 0.00 0.00 41 1016.0
20260903082503 87 143 3.0 9.0 0.00 0.00 0.00 41 1015.9
20260903082003 87 80 2.0 9.0 0.00 0.00 0.00 41 1016.0
20260903081503 87 114 2.0 7.0 0.00 0.00 0.00 42 1016.0
20260903081004 86 262 1.0 7.0 0.00 0.00 0.00 44 1016.1
20260903080503 85 329 2.0 8.0 0.00 0.00 0.00 44 1015.9
20260903080003 85 346 2.0 9.0 0.00 0.00 0.00 45 1015.9
20260903075504 84 8 5.0 9.0 0.00 0.00 0.00 44 1016.1
20260903075004 84 326 2.0 9.0 0.00 0.00 0.00 45 1016.1
20260903074503 84 258 3.0 6.0 0.00 0.00 0.00 46 1016.1
20260903074004 84 316 2.0 6.0 0.00 0.00 0.00 46 1016.2
20260903073504 84 351 2.0 7.0 0.00 0.00 0.00 46 1016.1
20260903073003 83 358 1.0 7.0 0.00 0.00 0.00 47 1016.1
20260903072503 83 311 2.0 7.0 0.00 0.00 0.00 47 1016.2
20260903072003 83 326 1.0 6.0 0.00 0.00 0.00 48 1016.2
20260903071504 83 318 2.0 6.0 0.00 0.00 0.00 47 1016.0
20260903071004 83 204 1.0 5.0 0.00 0.00 0.00 46 1016.1
20260903070503 84 212 2.0 4.0 0.00 0.00 0.00 47 1016.1
20260903070003 83 200 2.0 4.0 0.00 0.00 0.00 47 1016.1
20260903065503 83 184 1.0 5.0 0.00 0.00 0.00 48 1016.1
20260903065003 83 343 2.0 5.0 0.00 0.00 0.00 48 1016.1
20260903064504 82 334 2.0 6.0 0.00 0.00 0.00 48 1016.0
20260903064003 82 358 2.0 6.0 0.00 0.00 0.00 49 1015.8
20260903063504 82 69 2.0 4.0 0.00 0.00 0.00 50 1015.9
20260903063003 82 84 2.0 7.0 0.00 0.00 0.00 50 1015.9